FW1340 Weather Reports


time (UTC)temp
F
wind
direction
speed
knots
gust
knots
rain 1hr
in
rain 24hr
in
rain mn
in
humidity
%
barometer
mb
20260507134526 53 249 0.0 0.0 0.00 0.00 0.00 93 1019.0
20260507133022 53 241 0.0 0.0 0.00 0.00 0.00 92 1018.7
20260507131533 53 287 0.0 0.0 0.00 0.00 0.00 92 1018.6
20260507130016 53 287 0.0 0.0 0.00 0.00 0.00 91 1018.5
20260507124517 54 287 0.0 0.0 0.00 0.00 0.00 91 1018.5
20260507123010 54 287 0.0 0.0 0.00 0.00 0.00 92 1018.5
20260507121510 55 287 0.0 0.0 0.00 0.00 0.00 92 1018.4
20260507120017 55 287 0.0 0.0 0.00 0.00 0.00 92 1018.3
20260507114507 55 287 0.0 0.0 0.00 0.00 0.00 92 1018.2
20260507113006 55 287 0.0 0.0 0.00 0.00 0.00 92 1018.2
20260507111506 55 286 0.0 0.0 0.00 0.00 0.00 92 1018.4
20260507110005 55 267 0.0 0.0 0.00 0.00 0.00 92 1018.3
20260507104505 55 277 0.0 0.0 0.00 0.00 0.00 92 1018.2
20260507103002 55 302 0.0 0.0 0.00 0.00 0.00 92 1018.3
20260507101502 55 302 0.0 0.0 0.00 0.00 0.00 91 1018.2
20260507094620 56 288 0.0 0.0 0.00 0.00 0.00 91 1018.2
20260507093058 56 333 0.0 0.0 0.00 0.00 0.00 91 1018.3
20260507091557 56 69 0.0 0.0 0.00 0.00 0.00 91 1018.4
20260507090056 56 69 0.0 0.0 0.00 0.00 0.00 91 1018.5
20260507084600 56 69 0.0 0.0 0.00 0.00 0.00 90 1018.6
20260507083053 56 70 0.0 0.0 0.00 0.00 0.00 89 1018.5
20260507081549 57 250 0.0 0.0 0.00 0.00 0.00 89 1018.5
20260507080052 57 250 0.0 0.0 0.00 0.00 0.00 88 1018.3
20260507074547 58 250 0.0 0.0 0.00 0.00 0.00 87 1018.3
20260507073044 58 265 0.0 0.0 0.00 0.00 0.00 87 1018.3
20260507071545 59 268 0.0 0.0 0.00 0.00 0.00 87 1018.3
20260507070052 59 268 0.0 0.0 0.00 0.00 0.00 86 1018.3
20260507064545 59 266 0.0 0.0 0.00 0.00 0.00 86 1018.3
20260507063039 60 254 0.0 0.0 0.00 0.00 0.00 85 1018.3
20260507061540 60 265 0.0 0.0 0.00 0.00 0.00 84 1018.3
20260507060044 61 267 0.0 0.0 0.00 0.00 0.00 83 1018.2
20260507054540 61 271 0.0 0.0 0.00 0.00 0.00 82 1018.2
20260507053039 61 243 0.0 0.0 0.00 0.00 0.00 82 1018.2
20260507051536 62 273 0.0 0.0 0.00 0.00 0.00 82 1018.1
20260507050058 63 263 0.0 0.0 0.00 0.00 0.00 80 1018.1
20260507044546 64 263 0.0 0.0 0.00 0.00 0.00 79 1018.0
20260507043035 64 255 0.0 0.0 0.00 0.00 0.00 78 1017.9
20260507041533 65 263 0.0 0.0 0.00 0.00 0.00 77 1017.8
20260507040033 66 248 0.0 0.0 0.00 0.00 0.00 76 1017.7
20260507034539 67 257 0.0 0.0 0.00 0.00 0.00 75 1017.4
20260507033039 68 278 0.0 0.0 0.00 0.00 0.00 74 1017.3
20260507031534 70 257 0.0 0.0 0.00 0.00 0.00 72 1017.2
20260507030036 71 271 0.0 0.0 0.00 0.00 0.00 68 1017.1
20260507024535 73 263 0.0 0.0 0.00 0.00 0.00 66 1017.0
20260507023030 74 262 0.0 0.0 0.00 0.00 0.00 63 1017.0
20260507021545 75 252 0.0 0.0 0.00 0.00 0.00 60 1016.9
20260507020030 75 254 0.0 0.0 0.00 0.00 0.00 58 1016.8
20260507014529 75 269 0.0 0.0 0.00 0.00 0.00 58 1016.8
20260507013034 76 251 0.0 0.0 0.00 0.00 0.00 57 1016.9
20260507011532 76 244 0.0 0.0 0.00 0.00 0.00 56 1016.9
20260507010038 76 265 0.0 0.0 0.00 0.00 0.00 56 1017.0
20260507004525 77 272 0.0 0.0 0.00 0.00 0.00 56 1016.9
20260507003027 77 281 0.0 0.0 0.00 0.00 0.00 55 1016.9
20260507001528 77 255 0.0 0.0 0.00 0.00 0.00 54 1016.9
20260507000027 77 265 0.0 0.0 0.00 0.00 0.00 55 1017.0
20260506234523 77 253 0.0 0.0 0.00 0.00 0.00 55 1017.0
20260506233020 77 9 0.0 0.0 0.00 0.00 0.00 53 1017.1
20260506231523 77 326 0.0 0.0 0.00 0.00 0.00 55 1017.3
20260506230015 76 232 0.0 0.0 0.00 0.00 0.00 54 1017.4
20260506224516 77 336 0.0 0.0 0.00 0.00 0.00 55 1017.6
20260506223015 76 26 0.0 0.0 0.00 0.00 0.00 54 1017.9
20260506221508 76 325 0.0 0.0 0.00 0.00 0.00 54 1018.2
20260506220014 76 5 0.0 0.0 0.00 0.00 0.00 54 1018.4
20260506214509 76 235 0.0 0.0 0.00 0.00 0.00 55 1018.6
20260506213002 75 355 0.0 0.0 0.00 0.00 0.00 55 1018.7
20260506211600 75 270 0.0 0.0 0.00 0.00 0.00 56 1018.8
20260506210056 73 36 0.0 0.0 0.00 0.00 0.00 59 1019.0
20260506204559 72 323 0.0 0.0 0.00 0.01 0.00 61 1019.2
20260506203053 72 71 0.0 0.0 0.00 0.01 0.00 59 1019.3
20260506201556 72 238 0.0 0.0 0.00 0.01 0.00 61 1019.6
20260506200107 71 55 0.0 0.0 0.00 0.01 0.00 60 1019.7
20260506194558 72 355 0.0 0.0 0.00 0.01 0.00 60 1019.9
20260506193047 72 355 0.0 0.0 0.00 0.01 0.00 62 1020.0
20260506191543 71 319 0.0 0.0 0.00 0.01 0.00 64 1020.1
20260506190140 71 296 0.0 0.0 0.00 0.01 0.00 65 1020.3
20260506184539 70 325 0.0 0.0 0.00 0.01 0.00 67 1020.4
20260506183043 70 239 0.0 0.0 0.00 0.01 0.00 67 1020.6
20260506181532 69 269 0.0 0.0 0.00 0.01 0.00 68 1020.6
20260506180027 68 348 0.0 0.0 0.00 0.01 0.00 70 1020.7
20260506174523 67 248 0.0 0.0 0.00 0.01 0.00 72 1020.7
20260506173021 67 274 0.0 0.0 0.00 0.01 0.00 73 1020.7
20260506171527 65 344 0.0 0.0 0.00 0.01 0.00 75 1020.7
20260506170011 63 335 0.0 0.0 0.00 0.01 0.00 80 1020.7
20260506164506 62 261 0.0 0.0 0.00 0.01 0.00 82 1020.7
20260506163004 60 259 0.0 0.0 0.00 0.01 0.00 82 1020.7
20260506161606 60 255 0.0 0.0 0.00 0.01 0.00 83 1020.8
20260506160058 59 267 0.0 0.0 0.00 0.01 0.00 83 1020.8
20260506154550 59 268 0.0 0.0 0.00 0.01 0.00 85 1020.9
20260506153047 58 239 0.0 0.0 0.00 0.01 0.00 86 1020.9
20260506151600 57 260 0.0 0.0 0.00 0.01 0.00 87 1020.8
20260506150040 57 271 0.0 0.0 0.00 0.01 0.00 88 1020.9
20260506144535 57 244 0.0 0.0 0.00 0.01 0.00 89 1020.8
20260506143043 57 257 0.0 0.0 0.00 0.01 0.00 89 1020.8
20260506141528 56 248 0.0 0.0 0.00 0.01 0.00 90 1020.6
20260506140032 56 244 0.0 0.0 0.00 0.01 0.00 90 1020.4